SL-14 DEB

Satellite information

Favourite Embed

Satellite Type and Status

DEBRISIN ORBIT

Key statistics

Satellite SL-14 DEB at a glance.

Uptime

14240

Days in orbit

Revolutions

≈ 14.0

Per day

Orbit

LEO

Low Earth Orbit

Inclination

82.4

Latest

Satellite identification and parameters

Extended collection of information and parameters for SL-14 DEB.

Object identification

Identified? True

Debris? True

Object name: SL-14 DEB

International designator: 1986-101F

Object number (NORAD): 17271

Object ID (CCSDS): 17271

Country: COMMONWEALTH OF INDEPENDENT STATES (CIS)

Current information (Y/N): Y

RCS size: SMALL

Orbital parameters

Period: 102.685 minutes

Inclination: 82.4073 deg

SMA: 7263.835 km

Apoapsis: 903.939 km

Periapsis: 867.462 km

RAAN: 15.5398 deg

Eccentricy: 0.00251084

Argument of periapsis: 315.5958 deg

Mean anomaly: 72.2866 deg

Mean motion: 14.0234143 rev/day

Mean motion (dot): 0.00000749 rev/day2

B* drag term: 0.00047778622 1/REarth

Two-line elements (TLE)

Creation date: Dec. 12, 2025, 10:14 a.m.

Reference frame: TEME

Reference center: EARTH

Epoch: Dec. 12, 2025, 2:19 a.m. UTC

TLE line 0: 0 SL-14 DEB

TLE line 1: 1 17271U 86101F 25346.09695631 .00000749 00000-0 47779-3 0 9990

TLE line 2: 2 17271 82.4073 15.5398 0025108 315.5958 72.2866 14.02341430985709

Live tracking on map

Real-time ground track for satellite SL-14 DEB.

In-orbit conjunctions

A list of the most updated potential collisions computed for object SL-14 DEB.

Target Orbit TCA Probability of collision Miss distance Type
FENGYUN 1C DEB SSO 2024-09-26 00:16:51 0.0001239368 960.0 (m) DEBRIS
FENGYUN 1C DEB SSO 2024-07-31 21:16:48 0.0002097582 103.0 (m) DEBRIS

Associated space launch

Ionospheric research satellite

SL-14 DEB was lifted into orbit during the mission ‘Tsiklon-3 | Ionozond-E’, on board a Tsiklon-3 space rocket.

The launch took place on Dec. 18, 1986, 8 a.m. from 32/2.

For more information about the launch, click the button.

Launch to space Tsiklon-3 | Ionozond-E
Tsiklon-3 | Ionozond-E

Agency: N/A

Status: Launch Successful

Launch date: Dec. 18, 1986, 8 a.m. UTC

Rocket: Tsiklon-3

Launch pad: 32/2

Location: Plesetsk Cosmodrome, Russian Federation

...

Latest news about this satellite

There are no fresh news available about this satellite. Check back as we update our databases every day.


Newsletter sign-up

Weekly statistics, charts and insights to help you stay on top of the space industry.